Vorticity
6 6 9 10 12 11 8 9 7 5 8 5 0 3 9 9 8 14 13 9 11 -1 -13 -1 10 29 60 51 14 2 5 13 24 24 18 15 9 9 18 20 8 -2 1 14 20 15 8 5 4 3 3 5 8 10 7 5 6 7 7 5 6 7 6 7 11 11 9 8 6 4 5 8 9 9 7 5 3 2 2 2 4 5 3 3 6
10 12 13 10 10 9 6 6 3 3 8 3 -3 4 10 5 -5 -7 6 15 5 -10 -2 21 20 13 31 41 27 13 7 15 35 41 29 23 24 23 27 31 17 -3 -2 16 26 21 15 11 6 4 3 1 4 8 9 6 5 6 5 2 4 8 9 10 11 9 6 7 10 9 9 9 10 10 7 5 5 5 3 3 4 5 4 2 5
13 8 10 11 8 5 2 2 -1 0 4 -1 0 9 11 7 -10 -25 -8 11 2 -2 17 28 20 13 19 28 29 20 14 24 36 34 24 21 24 27 28 25 11 -2 -1 13 22 22 19 14 10 9 9 8 9 10 10 9 6 5 5 4 5 8 10 11 11 9 5 7 11 13 12 10 8 8 8 8 8 6 5 6 6 5 5 4 5
17 3 6 11 5 1 -1 -2 -4 -4 -3 -4 4 16 19 21 11 -6 6 25 14 2 6 5 -0 2 8 16 21 13 10 21 24 11 -1 -4 -3 2 7 6 3 2 4 8 16 21 19 13 9 8 8 8 10 11 11 11 9 7 6 7 8 8 8 10 10 7 2 -0 4 9 9 8 7 5 4 6 10 9 7 7 8 5 3 5 7
25 10 6 7 5 1 -2 1 1 -1 -1 0 4 8 7 9 9 6 17 28 20 6 2 1 -1 -3 -0 6 11 12 11 12 11 5 -0 -0 2 2 3 4 3 4 8 12 15 19 20 16 9 6 7 7 7 9 11 12 12 9 7 10 11 7 6 8 6 2 -2 -5 -2 3 4 4 3 -1 -4 -1 5 6 7 10 9 4 2 5 8
25 13 5 3 1 -4 -4 6 7 -0 1 6 7 5 4 6 10 15 18 15 11 10 8 8 7 2 2 4 6 12 14 9 5 5 4 5 9 9 11 18 17 11 14 19 19 18 20 19 14 12 12 10 10 11 11 11 11 9 8 10 10 6 3 5 6 5 2 -1 -2 0 3 1 -3 -8 -7 -3 -2 -0 9 13 6 1 4 8 10
13 4 -3 -4 -1 -2 3 11 5 -2 1 2 4 9 12 14 14 14 10 -1 -1 5 3 4 8 5 2 3 5 11 16 12 6 5 5 6 8 10 14 20 19 15 17 20 21 20 13 10 14 15 10 8 15 17 12 8 7 7 8 10 9 6 2 1 3 3 -0 -1 -2 -4 -6 -6 -7 -8 -4 5 7 9 15 13 3 1 6 10 12
6 -2 -8 -3 5 5 7 7 -1 0 6 2 6 14 14 11 8 6 5 1 1 4 1 1 4 3 3 3 2 7 16 18 10 4 5 7 8 10 12 14 14 15 15 15 21 24 18 13 17 21 16 9 10 14 11 7 7 5 5 7 5 1 0 -0 0 -0 -1 -1 -2 -5 -7 -5 -0 1 3 9 14 15 15 11 5 4 6 9 13
3 1 -0 4 6 1 2 6 4 8 10 5 6 10 8 7 4 2 4 4 3 1 0 2 1 0 3 5 4 5 11 20 18 8 3 6 10 10 11 12 12 13 14 16 21 24 22 16 12 18 23 11 4 10 12 11 13 9 3 3 2 -2 -3 -3 -5 -8 -9 -8 -5 1 7 10 11 8 7 8 11 11 9 9 10 8 7 9 12
3 4 5 8 11 12 14 13 9 7 5 2 3 3 4 6 4 2 3 3 1 -0 -0 1 1 -1 -1 1 4 6 7 16 23 16 5 4 9 10 11 13 13 11 14 19 25 25 23 18 10 12 18 13 8 7 2 5 16 18 13 11 13 13 9 7 6 2 -0 2 6 8 8 11 13 10 8 8 7 8 7 8 11 10 10 13 13
5 7 9 9 11 12 7 1 -1 -1 -3 -4 -2 -2 1 3 2 1 1 0 2 2 -0 0 2 2 2 1 -1 2 8 14 20 20 10 4 8 10 14 18 13 8 11 17 24 27 25 21 16 14 17 18 18 12 9 16 20 18 19 19 19 21 19 18 22 21 16 13 11 5 2 7 12 10 7 5 6 8 7 8 10 10 13 17 16
4 10 10 4 -1 -3 -7 -8 -5 -4 -4 -4 -5 -5 -3 -1 1 1 -2 -3 -1 -2 -3 1 3 1 2 5 0 -1 9 15 15 18 14 5 7 12 16 19 12 5 10 13 18 27 28 22 19 21 24 25 24 22 23 25 17 11 17 20 16 14 15 17 19 14 6 3 3 4 5 8 8 5 5 7 10 10 8 7 10 12 15 18 18
6 10 4 -5 -6 -8 -10 -9 -8 -7 -4 -1 -1 -2 -2 -2 0 1 -1 -2 -4 -4 -3 -1 3 4 2 7 5 -3 7 15 12 16 16 5 6 14 18 19 10 4 8 9 12 25 30 21 15 16 17 14 12 13 14 12 9 9 14 16 12 8 7 9 9 -0 -7 -2 4 5 6 7 6 5 6 8 9 7 5 6 10 13 17 19 18
10 11 5 3 3 -2 -6 -3 -1 -2 -2 2 3 2 2 2 1 -0 2 1 -4 -3 -2 -7 1 10 6 7 6 -1 9 19 11 12 18 9 7 15 14 11 9 6 7 8 11 24 29 22 13 9 9 7 6 10 9 7 8 8 8 8 6 3 2 2 1 -5 -9 -2 4 2 4 8 7 4 5 7 7 5 6 9 12 15 17 18 18
2 0 -2 0 1 -1 -1 1 2 -1 -3 -0 3 3 3 4 4 3 2 1 -1 0 1 -5 -2 6 5 8 8 2 14 25 11 10 23 16 8 12 9 8 10 8 6 8 13 20 19 14 11 9 8 8 6 6 6 5 9 10 6 3 1 2 6 8 8 7 5 6 6 3 5 9 7 6 7 7 5 7 9 12 15 17 18 19 18
-0 -5 -7 -6 -4 -1 1 0 -0 0 0 0 0 2 4 3 4 5 3 2 2 1 4 4 0 -1 2 9 8 2 15 27 15 13 25 18 7 7 7 9 12 9 8 12 16 18 14 11 13 10 5 2 -1 -1 0 2 6 6 3 4 6 10 13 13 11 10 9 8 7 6 7 10 10 10 10 8 7 8 9 13 17 19 19 20 17
-1 -3 -5 -4 -3 -0 3 2 0 2 7 10 4 -0 5 5 2 4 7 6 4 1 5 8 4 1 -0 4 9 10 16 23 19 20 24 14 3 6 10 12 13 11 11 12 13 20 23 16 10 5 1 0 -1 -1 2 5 6 6 4 7 10 9 8 8 7 7 8 8 8 9 11 12 12 11 11 12 13 12 13 17 19 18 18 20 15
-4 -3 -1 2 2 -0 0 0 1 2 5 13 12 2 1 2 0 6 14 10 4 6 8 6 6 7 -1 -1 14 20 17 20 25 25 19 7 2 8 12 11 9 11 15 15 14 19 17 6 -0 -2 -2 1 3 5 8 8 6 6 7 7 7 6 5 6 7 9 10 10 9 10 11 11 12 12 14 17 18 19 22 22 19 17 19 19 13
-2 -2 -2 1 1 1 2 1 3 5 1 2 8 7 3 1 -1 5 13 7 0 6 11 8 8 6 1 10 24 22 18 26 31 21 10 4 6 11 12 9 7 9 12 10 6 2 -4 -8 -4 0 4 10 14 12 9 7 7 9 9 7 6 7 8 9 10 11 12 13 13 12 10 8 10 14 16 18 20 22 22 19 17 18 19 17 11
1 0 -1 2 2 1 3 4 3 6 3 -4 -2 5 8 7 4 3 6 6 8 13 12 8 6 7 13 28 30 20 21 29 25 12 6 4 7 11 9 3 1 3 6 4 3 5 6 6 9 14 18 19 15 10 8 10 11 8 6 6 7 9 10 11 10 10 11 12 11 11 11 12 14 16 17 18 19 19 17 16 18 20 19 15 10
5 6 5 6 5 -0 2 6 4 6 10 3 -1 4 6 5 6 6 4 8 17 22 17 10 16 26 32 32 24 18 22 22 12 7 6 5 7 9 6 1 3 10 12 11 13 19 22 21 18 18 17 13 8 9 11 10 7 3 4 8 10 10 9 8 8 9 9 10 9 10 12 15 17 19 19 20 20 18 17 19 21 21 18 13 10
2 4 1 -1 1 2 6 8 2 4 11 6 2 5 2 -1 6 8 4 6 15 22 24 25 31 34 28 19 14 15 16 12 7 7 7 6 8 7 4 7 13 14 11 12 18 18 16 19 21 17 14 12 11 11 9 6 5 5 8 9 9 8 8 9 10 10 8 9 10 11 13 15 18 20 21 21 19 17 18 21 20 18 13 11 11
1 5 3 3 8 7 6 5 0 8 19 7 -3 1 2 3 11 8 -1 6 20 28 30 30 28 21 12 8 11 12 11 8 7 7 6 8 9 5 4 9 11 9 8 13 14 8 8 17 23 21 15 9 5 6 7 8 9 10 11 12 12 14 15 15 13 10 9 10 12 14 15 17 18 19 19 20 18 18 20 20 15 13 11 11 14
11 9 3 8 13 7 3 1 -1 16 34 19 -0 -0 1 3 10 4 -4 9 25 27 22 17 12 7 5 7 9 9 7 6 7 8 9 9 8 6 7 10 11 11 11 10 7 7 13 19 18 14 12 7 6 10 13 14 14 14 14 15 16 18 17 14 11 10 10 10 11 14 17 17 17 19 20 20 19 18 18 14 10 11 12 12 14
5 5 5 9 11 9 11 10 8 26 41 23 2 1 2 2 7 3 0 14 25 19 12 8 5 5 7 8 8 7 6 7 8 9 9 9 8 8 10 13 12 9 7 8 10 15 19 19 15 13 13 12 13 15 15 13 12 12 12 14 16 16 13 10 10 10 10 12 14 16 17 17 18 21 21 19 18 17 14 10 9 12 13 13 14
9 13 15 12 10 14 18 14 10 20 23 6 -3 3 4 3 6 4 5 17 21 14 8 5 5 8 9 7 7 7 7 7 7 7 9 11 10 8 9 10 7 6 10 17 19 16 14 14 14 13 12 11 11 11 9 8 9 11 14 16 15 13 11 10 10 11 14 18 19 16 15 16 20 21 19 17 16 14 11 10 11 13 14 12 11
8 4 6 7 5 8 10 7 5 10 9 1 2 6 3 4 8 8 11 18 16 10 8 7 6 8 7 6 7 6 5 6 9 11 12 11 8 7 9 10 9 11 17 21 19 14 12 12 11 10 10 9 7 6 6 8 13 17 19 16 12 10 10 11 13 17 19 17 13 11 14 19 20 18 16 15 15 13 11 11 12 12 12 11 11
3 -2 5 10 4 0 3 5 5 7 7 5 6 6 5 7 8 9 14 16 10 8 9 8 6 6 6 7 8 6 7 13 14 9 6 6 6 7 9 10 12 14 17 20 19 13 10 11 9 8 7 5 4 7 11 16 20 20 15 12 11 11 11 14 17 17 13 11 11 16 20 20 17 15 14 14 13 11 11 11 11 12 12 11 12
2 6 13 12 6 3 3 2 2 4 4 6 9 9 9 9 10 13 15 12 8 10 11 8 8 8 8 9 10 8 10 12 6 -1 1 7 10 11 10 12 16 19 18 20 21 14 8 7 6 5 5 7 9 14 18 21 20 16 13 12 13 14 14 15 13 10 10 15 20 22 20 16 13 13 13 11 11 10 10 11 12 12 13 12 12
-3 8 12 6 5 4 -1 -2 4 7 4 5 9 11 10 10 12 13 11 9 12 14 13 10 8 9 10 11 10 8 8 7 2 4 10 14 14 14 15 18 23 23 18 15 13 9 5 4 4 6 11 14 16 18 19 19 17 15 14 13 12 13 14 13 12 15 20 22 21 17 14 13 13 12 11 10 11 11 11 12 12 12 13 13 12
0 5 5 4 5 2 -2 3 8 5 2 7 11 12 10 9 8 9 12 15 16 12 10 9 9 10 13 13 9 8 10 10 10 12 15 13 9 8 15 22 24 19 14 11 8 7 8 9 12 16 17 13 13 17 18 18 18 16 15 13 11 11 13 14 18 22 22 19 15 14 14 13 11 10 10 11 12 11 11 13 12 12 12 13 12
7 4 3 4 4 1 3 9 7 5 12 19 15 10 7 7 9 13 15 14 9 5 6 8 9 11 13 11 10 11 11 9 9 11 11 8 7 12 22 25 17 9 9 9 7 8 12 16 19 18 9 2 8 17 20 19 18 14 11 10 10 12 14 17 20 20 17 15 14 14 13 11 10 10 12 11 11 11 12 12 12 12 12 12 12
7 3 2 1 1 4 10 14 12 16 23 21 10 5 6 9 12 13 11 7 6 5 5 6 8 11 11 10 12 11 7 6 10 11 9 11 17 25 25 14 3 2 8 10 11 16 21 21 17 8 -1 -1 11 19 16 12 10 8 8 10 11 12 15 18 19 17 15 14 13 12 11 11 10 10 11 11 10 11 12 12 12 12 11 11 12
-0 -1 0 0 3 10 16 15 14 16 16 11 7 7 9 11 13 10 6 5 6 5 6 7 8 10 11 11 12 8 6 10 12 9 9 17 24 23 13 1 -1 7 12 15 19 23 21 15 6 -1 -1 8 15 13 8 7 8 9 11 11 10 12 16 19 18 16 14 13 13 12 10 10 10 11 11 11 11 11 12 12 11 10 10 11 13
1 -0 2 5 8 14 17 13 8 7 8 9 10 11 12 12 10 8 7 6 6 7 9 8 8 11 14 14 11 8 8 10 10 10 16 22 20 13 5 1 6 15 19 23 25 23 16 9 5 5 10 14 12 8 8 10 12 13 14 13 12 15 17 18 17 15 14 13 12 11 10 10 10 10 11 11 11 12 12 11 11 10 10 11 11
4 4 7 9 10 14 15 9 5 7 11 13 12 10 10 9 7 7 8 9 9 8 8 10 12 14 15 13 10 9 8 10 14 20 20 15 10 7 5 7 14 21 23 21 19 16 13 11 10 11 12 12 10 11 13 14 15 16 16 14 15 17 17 17 17 15 13 13 12 11 11 10 9 10 11 12 11 11 10 10 10 10 11 10 10
10 8 6 6 10 15 14 11 12 14 13 11 10 10 10 9 7 6 6 8 10 10 11 14 16 15 15 16 14 12 13 15 18 19 13 7 6 7 9 14 20 21 18 14 13 12 12 12 12 13 12 12 13 16 17 17 18 18 17 16 18 18 17 17 16 14 13 13 12 11 10 10 9 11 11 11 10 10 9 9 9 10 11 11 10
4 0 3 10 16 17 13 11 13 12 10 10 10 10 8 6 5 6 7 9 11 11 13 16 14 13 16 15 12 13 18 18 15 13 10 7 8 9 14 20 20 16 13 12 11 11 11 12 15 17 17 17 18 19 20 19 19 18 18 18 18 17 16 16 15 14 13 13 11 10 10 10 10 10 10 10 10 9 8 8 9 9 10 11 11
1 7 15 17 14 9 7 8 9 9 10 12 10 8 7 8 9 11 10 10 14 18 18 16 12 13 16 14 12 16 18 14 12 14 13 10 11 15 19 20 15 11 12 12 10 13 16 17 18 20 20 19 19 19 19 18 17 16 17 17 16 16 15 15 14 14 13 12 11 11 10 10 10 10 10 9 9 9 9 9 9 9 10 10 11
10 14 14 9 6 7 8 9 11 12 12 11 10 10 11 12 12 10 9 10 15 15 8 2 5 13 18 17 13 14 14 14 15 14 9 10 17 20 18 13 10 12 14 13 13 17 18 17 18 19 17 17 17 17 16 15 15 15 15 15 15 15 14 14 14 14 13 13 12 11 10 10 10 9 9 9 9 9 10 10 9 10 11 10 11
10 9 8 8 9 10 10 11 12 13 12 12 12 13 13 13 11 9 9 10 10 6 2 6 15 20 18 14 13 18 21 19 13 6 7 15 21 17 12 11 13 15 15 14 16 17 17 16 16 15 14 15 16 16 15 14 14 14 15 14 14 14 13 14 14 13 13 12 11 11 10 10 9 9 9 9 9 9 10 10 11 11 11 11 11
10 11 12 11 10 10 11 12 14 15 15 14 13 12 11 10 8 7 8 11 11 10 15 22 25 20 16 18 20 19 14 8 7 12 20 23 18 12 11 14 16 15 15 15 15 15 13 13 13 13 13 15 16 16 16 15 14 15 16 16 15 14 14 14 14 13 13 12 11 11 11 10 10 10 10 10 11 11 10 10 11 11 10 11 12
14 12 10 10 11 12 14 15 15 15 13 11 9 9 8 8 9 12 15 17 16 16 20 23 21 16 16 18 15 8 7 13 23 27 24 18 15 15 17 16 14 13 13 12 12 12 11 11 11 13 15 16 16 17 17 16 16 16 17 18 18 17 16 15 14 14 13 12 11 11 11 11 11 11 11 11 11 11 10 9 9 11 10 10 11
11 10 11 13 15 15 15 14 12 10 9 8 9 10 11 13 16 18 18 16 15 15 17 17 14 11 12 15 17 19 25 30 27 19 14 15 18 19 15 11 11 10 10 10 11 11 11 11 12 13 14 15 16 16 16 16 17 17 17 17 19 18 18 17 17 16 14 14 14 12 11 12 11 10 10 10 9 9 10 10 10 11 12 11 11
12 14 16 15 14 12 10 9 8 9 10 11 12 13 13 14 16 17 14 10 9 11 11 10 9 12 17 23 28 31 30 23 15 13 17 19 16 12 9 9 9 9 10 12 12 11 10 10 11 11 13 14 15 16 17 17 17 15 15 15 15 15 15 15 14 14 13 12 11 11 10 10 10 9 9 10 11 11 13 15 15 16 17 15 13
14 14 13 11 9 8 9 10 12 13 13 13 14 14 13 13 14 13 8 4 7 13 16 17 17 18 18 19 22 23 20 15 13 15 17 13 9 7 8 8 8 9 10 11 10 9 9 8 8 9 9 10 12 14 15 17 17 17 16 14 13 12 12 11 10 10 11 10 10 11 11 10 11 11 11 14 16 18 20 22 22 22 22 20 18
11 10 10 10 12 13 14 14 13 12 13 15 15 13 12 12 12 10 8 10 18 23 21 16 12 10 11 17 21 20 16 14 14 14 12 9 8 8 7 7 9 10 9 8 7 7 8 7 7 7 7 6 7 9 11 13 15 17 16 16 15 14 13 12 11 11 12 12 11 12 12 11 12 15 16 19 21 21 21 21 23 23 24 24 23
11 11 14 15 16 15 14 12 11 11 13 13 12 11 12 12 11 11 13 16 19 17 10 5 5 10 17 22 21 17 15 15 15 13 10 8 7 6 6 7 8 8 6 6 6 5 6 6 6 6 7 6 6 7 7 7 10 12 13 15 17 16 15 15 14 13 13 13 12 12 13 14 16 19 20 20 19 18 17 17 19 21 22 24 23
11 14 15 14 13 12 12 12 12 13 12 10 9 10 10 10 11 14 16 15 13 10 9 10 14 19 20 18 15 15 17 17 14 10 8 8 7 7 7 6 6 5 5 5 4 4 4 6 5 6 7 7 7 7 6 5 6 8 9 10 13 15 16 17 17 15 14 13 12 12 14 18 20 20 19 16 15 16 16 16 16 18 19 21 21
13 13 14 13 12 12 13 12 11 10 8 8 8 8 9 11 13 15 14 13 13 14 15 16 17 16 14 13 14 18 19 16 11 9 8 8 8 8 6 5 5 5 4 4 4 4 4 5 5 5 6 7 7 8 8 7 5 6 6 7 9 12 13 15 17 17 16 14 12 13 18 21 21 17 14 13 15 16 15 15 15 16 17 18 18
13 13 13 12 12 11 10 8 7 7 7 9 10 11 12 13 13 12 13 14 14 15 14 14 13 12 14 16 19 20 18 15 11 8 8 8 9 9 8 7 6 6 5 5 6 5 5 5 6 5 6 7 8 8 9 9 8 6 6 6 7 9 11 13 14 16 16 14 13 15 20 21 18 13 11 12 13 13 12 14 15 15 15 17 18
Height
5889 5891 5891 5892 5893 5893 5894 5894 5894 5893 5893 5892 5892 5892 5892 5892 5893 5894 5893 5892 5892 5892 5891 5889 5886 5881 5877 5876 5878 5877 5875 5873 5870 5868 5868 5867 5866 5865 5864 5863 5864 5864 5863 5861 5860 5859 5858 5857 5856 5855 5855 5855 5854 5854 5853 5852 5852 5852 5851 5851 5850 5849 5847 5846 5844 5843 5841 5839 5838 5837 5836 5835 5835 5834 5833 5832 5830 5829 5828 5826 5825 5823 5821 5819 5818
5887 5888 5889 5890 5890 5891 5891 5891 5891 5891 5891 5890 5891 5890 5890 5890 5891 5891 5892 5892 5891 5890 5888 5886 5883 5879 5875 5874 5874 5874 5872 5868 5865 5863 5863 5862 5861 5859 5858 5858 5858 5858 5858 5856 5855 5854 5854 5853 5851 5851 5851 5850 5850 5849 5848 5847 5847 5847 5847 5846 5846 5844 5842 5841 5840 5838 5837 5835 5834 5832 5831 5830 5830 5830 5829 5827 5825 5823 5822 5820 5818 5817 5815 5814 5812
5885 5885 5886 5887 5888 5888 5888 5889 5890 5890 5890 5889 5890 5889 5888 5889 5889 5889 5890 5891 5890 5888 5886 5883 5880 5877 5875 5873 5871 5870 5868 5865 5862 5860 5859 5858 5857 5855 5854 5854 5854 5853 5852 5851 5850 5849 5849 5848 5847 5846 5846 5846 5845 5844 5843 5843 5842 5842 5842 5841 5841 5839 5837 5836 5835 5834 5832 5831 5830 5829 5827 5825 5824 5824 5823 5822 5820 5818 5816 5814 5812 5810 5809 5807 5806
5884 5884 5885 5885 5885 5885 5886 5888 5888 5888 5888 5889 5889 5888 5887 5887 5887 5888 5888 5888 5887 5885 5882 5880 5878 5876 5873 5872 5870 5868 5866 5864 5862 5860 5858 5856 5854 5852 5851 5851 5850 5849 5848 5847 5845 5844 5844 5843 5842 5842 5841 5841 5840 5839 5839 5838 5838 5837 5837 5836 5836 5834 5833 5831 5830 5829 5828 5827 5826 5824 5823 5821 5819 5818 5817 5816 5815 5812 5810 5807 5806 5804 5802 5800 5799
5882 5883 5883 5883 5883 5884 5884 5886 5886 5886 5886 5887 5887 5886 5885 5885 5885 5886 5886 5885 5883 5881 5880 5879 5877 5874 5872 5870 5869 5867 5865 5863 5861 5859 5856 5854 5852 5850 5849 5848 5846 5845 5844 5842 5841 5839 5838 5838 5837 5837 5836 5836 5836 5835 5834 5833 5833 5832 5831 5830 5830 5829 5828 5826 5825 5824 5823 5822 5820 5818 5818 5816 5814 5813 5811 5809 5808 5806 5803 5801 5799 5797 5795 5794 5792
5881 5881 5882 5882 5882 5882 5883 5884 5884 5884 5884 5884 5885 5884 5884 5883 5883 5883 5884 5883 5881 5880 5879 5877 5874 5872 5870 5869 5867 5866 5864 5862 5860 5858 5854 5852 5849 5848 5846 5844 5842 5840 5838 5837 5835 5834 5833 5832 5832 5831 5831 5831 5831 5831 5830 5829 5828 5827 5826 5824 5824 5823 5822 5821 5820 5818 5817 5816 5814 5813 5812 5810 5809 5807 5805 5803 5802 5799 5796 5794 5792 5790 5789 5787 5785
5880 5880 5880 5880 5881 5881 5882 5882 5882 5881 5881 5881 5881 5882 5882 5881 5881 5881 5881 5880 5878 5877 5875 5874 5872 5870 5868 5866 5865 5863 5862 5860 5858 5855 5852 5849 5846 5844 5842 5840 5837 5835 5833 5831 5829 5828 5827 5826 5826 5826 5826 5826 5826 5826 5825 5824 5822 5821 5821 5820 5819 5818 5817 5816 5814 5813 5812 5810 5809 5808 5806 5805 5803 5801 5799 5796 5794 5792 5790 5788 5786 5784 5782 5780 5778
5879 5878 5877 5878 5879 5881 5881 5881 5879 5878 5878 5878 5879 5879 5879 5879 5879 5878 5878 5876 5875 5873 5871 5870 5869 5867 5865 5863 5862 5861 5859 5857 5855 5852 5849 5846 5843 5841 5839 5836 5833 5831 5828 5825 5823 5822 5822 5822 5821 5820 5820 5821 5821 5820 5819 5818 5817 5816 5815 5815 5814 5812 5811 5810 5809 5807 5806 5805 5803 5802 5800 5799 5798 5795 5792 5789 5786 5784 5782 5780 5779 5778 5775 5773 5771
5875 5874 5875 5876 5878 5879 5880 5879 5877 5875 5875 5875 5876 5876 5876 5876 5875 5874 5873 5871 5870 5869 5868 5867 5866 5864 5862 5861 5860 5858 5856 5854 5852 5849 5846 5842 5839 5837 5834 5832 5829 5826 5824 5821 5819 5817 5817 5817 5816 5815 5815 5815 5815 5814 5814 5813 5812 5811 5809 5808 5807 5806 5805 5804 5803 5801 5800 5799 5798 5796 5795 5794 5792 5789 5785 5782 5779 5777 5775 5773 5772 5770 5768 5767 5765
5871 5871 5874 5876 5876 5876 5877 5876 5874 5874 5873 5873 5873 5873 5873 5872 5871 5871 5870 5867 5866 5866 5865 5864 5862 5861 5860 5859 5857 5855 5853 5850 5848 5845 5842 5838 5835 5833 5830 5827 5825 5823 5820 5818 5815 5813 5812 5812 5811 5810 5810 5809 5809 5809 5809 5808 5807 5805 5804 5803 5802 5801 5800 5798 5797 5795 5795 5794 5793 5791 5789 5787 5784 5781 5778 5775 5772 5770 5768 5766 5765 5763 5761 5760 5759
5868 5869 5871 5874 5873 5873 5872 5872 5871 5872 5871 5871 5871 5870 5869 5868 5868 5867 5867 5865 5863 5862 5861 5860 5859 5858 5857 5855 5853 5851 5849 5847 5844 5841 5838 5835 5832 5829 5827 5824 5822 5819 5817 5815 5812 5809 5808 5807 5806 5805 5805 5804 5804 5805 5804 5803 5802 5800 5799 5798 5796 5795 5794 5793 5791 5790 5789 5789 5787 5784 5782 5780 5777 5774 5771 5768 5766 5763 5761 5759 5758 5756 5755 5754 5753
5865 5866 5868 5869 5869 5868 5868 5868 5869 5869 5869 5868 5868 5867 5866 5865 5864 5864 5863 5863 5861 5860 5858 5857 5856 5854 5852 5851 5849 5847 5845 5843 5840 5837 5834 5832 5829 5826 5824 5821 5818 5816 5814 5811 5809 5806 5804 5803 5802 5801 5801 5800 5800 5799 5799 5798 5797 5795 5794 5792 5791 5790 5788 5787 5786 5785 5784 5782 5780 5777 5774 5772 5770 5767 5764 5761 5759 5756 5754 5753 5751 5750 5748 5746 5745
5862 5863 5865 5865 5864 5864 5864 5865 5866 5866 5866 5866 5865 5863 5862 5861 5860 5860 5859 5859 5858 5857 5855 5854 5852 5850 5848 5846 5844 5842 5840 5838 5836 5832 5830 5829 5826 5823 5820 5817 5815 5813 5811 5808 5806 5803 5801 5800 5799 5798 5797 5796 5795 5794 5794 5793 5792 5790 5789 5788 5787 5785 5783 5782 5780 5779 5777 5775 5773 5770 5767 5764 5762 5760 5757 5754 5752 5750 5748 5747 5745 5743 5742 5740 5738
5859 5860 5862 5861 5861 5861 5862 5862 5863 5863 5863 5862 5861 5860 5859 5858 5857 5856 5855 5855 5854 5853 5852 5850 5848 5846 5844 5842 5839 5836 5834 5833 5831 5828 5826 5825 5823 5820 5817 5814 5812 5810 5808 5805 5803 5800 5798 5797 5796 5795 5794 5792 5791 5790 5789 5788 5787 5786 5784 5783 5782 5781 5778 5776 5774 5772 5769 5767 5765 5762 5760 5758 5755 5754 5751 5748 5746 5744 5742 5741 5739 5737 5735 5733 5732
5856 5858 5859 5858 5859 5859 5859 5859 5859 5859 5858 5858 5857 5857 5856 5855 5854 5853 5852 5851 5850 5849 5847 5845 5844 5842 5840 5837 5834 5832 5829 5828 5826 5824 5822 5820 5818 5816 5814 5811 5809 5806 5804 5802 5800 5797 5796 5794 5793 5792 5791 5789 5787 5785 5784 5783 5782 5781 5780 5778 5777 5775 5773 5771 5768 5766 5763 5761 5759 5756 5753 5751 5750 5748 5745 5743 5740 5738 5736 5735 5733 5731 5729 5728 5727
5853 5855 5856 5856 5856 5856 5856 5856 5856 5855 5855 5854 5854 5853 5853 5852 5851 5849 5848 5847 5846 5844 5842 5840 5839 5837 5835 5831 5829 5827 5824 5822 5821 5819 5817 5816 5814 5812 5810 5807 5805 5803 5800 5798 5796 5795 5793 5791 5790 5788 5786 5785 5783 5781 5780 5779 5777 5776 5774 5772 5770 5768 5767 5764 5762 5760 5757 5755 5753 5750 5747 5745 5744 5742 5739 5737 5735 5732 5730 5729 5726 5724 5723 5722 5721
5850 5851 5852 5852 5852 5852 5852 5852 5852 5851 5851 5851 5850 5850 5849 5848 5847 5845 5843 5842 5842 5840 5837 5835 5833 5831 5829 5825 5823 5821 5819 5817 5816 5814 5812 5811 5810 5808 5806 5803 5801 5799 5797 5795 5794 5792 5791 5789 5787 5785 5782 5781 5779 5776 5775 5773 5772 5770 5768 5766 5763 5762 5760 5757 5755 5753 5751 5749 5747 5744 5742 5740 5738 5736 5733 5730 5727 5725 5723 5722 5719 5717 5717 5716 5714
5847 5848 5849 5849 5849 5849 5849 5848 5848 5848 5847 5847 5846 5846 5844 5843 5842 5840 5838 5837 5836 5834 5832 5830 5827 5825 5822 5819 5817 5816 5813 5812 5811 5809 5808 5807 5805 5803 5802 5800 5798 5795 5793 5792 5791 5789 5788 5787 5784 5781 5779 5776 5774 5771 5770 5768 5766 5764 5761 5759 5758 5756 5753 5751 5749 5746 5745 5744 5741 5739 5736 5734 5731 5729 5727 5723 5720 5718 5716 5715 5713 5711 5710 5709 5708
5844 5845 5845 5845 5845 5845 5845 5845 5844 5843 5843 5843 5842 5841 5839 5838 5836 5835 5833 5832 5830 5828 5826 5823 5821 5818 5816 5813 5812 5810 5808 5807 5806 5805 5803 5802 5800 5798 5797 5795 5793 5791 5789 5788 5787 5786 5785 5783 5780 5776 5773 5771 5768 5766 5764 5763 5760 5758 5756 5754 5752 5750 5748 5746 5744 5741 5739 5737 5735 5733 5731 5728 5725 5722 5720 5717 5714 5712 5710 5709 5707 5705 5704 5703 5701
5840 5841 5841 5841 5841 5840 5840 5840 5839 5839 5839 5838 5838 5836 5834 5832 5831 5829 5828 5826 5824 5821 5819 5817 5814 5812 5809 5808 5807 5805 5803 5802 5801 5800 5799 5797 5795 5794 5792 5790 5789 5787 5785 5784 5783 5782 5780 5777 5774 5771 5768 5765 5763 5761 5759 5756 5754 5752 5750 5748 5746 5745 5742 5740 5738 5736 5733 5731 5729 5727 5725 5722 5720 5717 5714 5711 5709 5706 5705 5703 5702 5700 5698 5697 5695
5836 5836 5836 5836 5836 5835 5835 5835 5834 5834 5834 5834 5833 5831 5829 5827 5825 5824 5822 5820 5817 5815 5813 5810 5808 5805 5803 5802 5801 5800 5798 5797 5796 5795 5794 5793 5791 5790 5788 5786 5784 5782 5780 5779 5777 5776 5774 5771 5768 5765 5762 5759 5757 5755 5752 5750 5748 5747 5745 5743 5741 5739 5737 5734 5732 5730 5727 5725 5723 5720 5718 5716 5714 5711 5709 5706 5703 5701 5699 5698 5696 5694 5693 5691 5689
5830 5831 5831 5831 5831 5830 5829 5829 5829 5829 5829 5829 5828 5826 5824 5822 5820 5818 5816 5814 5812 5809 5806 5803 5801 5800 5798 5797 5796 5795 5793 5792 5791 5790 5789 5788 5786 5784 5783 5781 5779 5777 5775 5774 5772 5769 5768 5765 5762 5759 5756 5754 5751 5749 5747 5745 5744 5742 5740 5738 5736 5733 5731 5729 5726 5724 5721 5719 5717 5715 5712 5710 5708 5705 5703 5701 5699 5697 5695 5693 5691 5689 5687 5685 5683
5825 5825 5825 5824 5824 5823 5823 5823 5824 5823 5823 5823 5822 5821 5819 5817 5814 5813 5811 5808 5806 5803 5800 5798 5796 5794 5793 5792 5791 5790 5789 5788 5787 5786 5784 5783 5781 5779 5777 5775 5773 5772 5770 5768 5766 5764 5762 5760 5757 5753 5751 5748 5745 5743 5742 5740 5739 5737 5734 5732 5730 5727 5725 5722 5720 5718 5716 5714 5711 5709 5707 5704 5702 5700 5698 5696 5694 5692 5690 5688 5686 5684 5682 5680 5678
5819 5819 5819 5819 5819 5818 5818 5818 5818 5816 5816 5816 5816 5814 5812 5811 5809 5807 5805 5803 5800 5798 5795 5793 5791 5790 5789 5788 5787 5786 5785 5784 5783 5781 5779 5778 5776 5774 5772 5769 5767 5766 5764 5762 5760 5757 5755 5754 5751 5748 5745 5743 5741 5739 5737 5735 5733 5731 5728 5726 5723 5721 5718 5716 5714 5712 5710 5708 5706 5703 5701 5699 5697 5695 5693 5691 5689 5687 5685 5683 5681 5680 5678 5676 5674
5814 5815 5815 5816 5816 5815 5814 5813 5812 5810 5809 5810 5809 5807 5806 5805 5803 5802 5800 5798 5795 5793 5791 5789 5787 5786 5785 5784 5783 5782 5781 5779 5778 5776 5774 5772 5770 5768 5765 5763 5761 5760 5758 5756 5754 5751 5749 5747 5745 5742 5740 5738 5736 5734 5732 5730 5727 5725 5722 5719 5716 5714 5712 5711 5709 5706 5704 5702 5700 5698 5696 5694 5692 5691 5688 5686 5684 5683 5681 5679 5677 5675 5674 5672 5670
5809 5810 5811 5811 5811 5810 5809 5808 5806 5805 5804 5804 5803 5801 5800 5799 5798 5796 5794 5793 5791 5789 5787 5785 5784 5782 5781 5780 5778 5777 5775 5774 5772 5771 5769 5766 5764 5762 5759 5757 5756 5754 5752 5750 5748 5745 5743 5740 5738 5736 5734 5732 5731 5729 5727 5724 5721 5718 5715 5712 5710 5709 5707 5705 5703 5701 5699 5697 5695 5693 5691 5690 5688 5686 5684 5682 5680 5678 5677 5675 5673 5671 5669 5668 5666
5804 5805 5806 5806 5805 5805 5803 5802 5801 5800 5799 5797 5797 5795 5794 5793 5792 5790 5789 5788 5786 5784 5782 5781 5780 5778 5777 5775 5773 5772 5770 5768 5767 5765 5763 5761 5758 5756 5754 5752 5750 5748 5746 5744 5741 5738 5736 5734 5732 5730 5728 5727 5725 5723 5720 5718 5715 5712 5709 5707 5705 5703 5701 5700 5698 5696 5694 5692 5690 5689 5687 5685 5683 5681 5679 5677 5676 5674 5673 5671 5669 5667 5665 5664 5662
5800 5801 5801 5800 5799 5798 5797 5795 5795 5794 5793 5791 5790 5789 5788 5787 5786 5785 5784 5783 5781 5779 5778 5776 5775 5774 5772 5770 5768 5767 5765 5763 5761 5759 5757 5754 5752 5750 5748 5746 5744 5742 5741 5739 5735 5732 5730 5728 5726 5724 5723 5721 5719 5716 5714 5712 5709 5706 5704 5702 5700 5698 5696 5695 5693 5691 5689 5687 5686 5684 5682 5680 5678 5677 5675 5673 5672 5670 5668 5667 5665 5663 5661 5660 5658
5796 5796 5795 5793 5792 5791 5790 5789 5789 5788 5786 5785 5784 5783 5782 5781 5781 5780 5778 5777 5776 5774 5773 5771 5770 5768 5767 5765 5763 5761 5759 5758 5756 5754 5751 5749 5747 5745 5743 5741 5739 5737 5735 5734 5732 5729 5726 5723 5721 5719 5717 5715 5713 5710 5708 5706 5704 5702 5700 5698 5696 5694 5692 5690 5688 5687 5685 5683 5681 5679 5678 5676 5674 5672 5671 5669 5668 5666 5665 5663 5661 5660 5658 5656 5654
5790 5790 5789 5787 5785 5785 5784 5784 5783 5781 5780 5778 5777 5777 5777 5776 5775 5774 5773 5771 5770 5769 5767 5766 5764 5762 5761 5759 5757 5755 5753 5751 5750 5748 5746 5744 5741 5740 5738 5736 5734 5732 5730 5729 5727 5724 5722 5718 5715 5713 5711 5709 5707 5705 5702 5700 5699 5697 5695 5693 5691 5689 5687 5685 5683 5682 5680 5678 5677 5675 5673 5672 5670 5669 5667 5666 5664 5662 5661 5659 5658 5656 5654 5652 5651
5783 5783 5782 5781 5780 5780 5779 5778 5776 5775 5774 5772 5771 5771 5771 5770 5769 5768 5767 5766 5765 5763 5761 5759 5758 5756 5755 5753 5750 5748 5747 5745 5744 5743 5742 5740 5737 5735 5733 5731 5730 5728 5726 5723 5721 5718 5716 5713 5710 5707 5706 5704 5702 5700 5698 5696 5694 5692 5690 5688 5686 5684 5682 5680 5678 5677 5675 5674 5672 5671 5669 5668 5667 5665 5664 5662 5660 5659 5657 5656 5654 5652 5650 5648 5647
5777 5777 5776 5775 5774 5773 5772 5772 5770 5769 5767 5767 5766 5765 5765 5765 5764 5762 5761 5760 5759 5757 5755 5754 5752 5750 5749 5747 5744 5743 5741 5740 5739 5738 5737 5735 5733 5731 5729 5727 5725 5723 5720 5718 5715 5713 5710 5708 5705 5703 5702 5700 5698 5696 5694 5691 5689 5687 5685 5683 5681 5680 5678 5676 5674 5673 5671 5670 5669 5667 5666 5665 5663 5662 5660 5659 5657 5656 5654 5652 5650 5649 5647 5645 5643
5771 5770 5770 5769 5769 5767 5766 5765 5764 5762 5761 5761 5760 5760 5760 5759 5758 5757 5756 5754 5753 5751 5750 5748 5746 5745 5744 5741 5739 5738 5737 5735 5734 5732 5731 5729 5727 5725 5723 5722 5720 5718 5715 5712 5709 5707 5705 5703 5700 5697 5697 5696 5693 5691 5689 5687 5685 5683 5681 5679 5677 5675 5673 5672 5670 5669 5668 5666 5665 5664 5662 5661 5660 5658 5657 5655 5654 5652 5651 5649 5647 5645 5643 5642 5640
5765 5765 5764 5763 5762 5761 5760 5759 5757 5756 5756 5756 5755 5755 5754 5753 5752 5751 5750 5748 5747 5746 5745 5744 5742 5740 5739 5737 5735 5733 5732 5730 5729 5727 5725 5723 5721 5719 5718 5716 5714 5712 5709 5706 5703 5701 5700 5700 5697 5693 5692 5691 5689 5686 5685 5683 5681 5679 5676 5674 5673 5671 5669 5668 5666 5665 5664 5663 5661 5660 5659 5658 5656 5655 5654 5652 5651 5649 5648 5646 5644 5642 5641 5639 5637
5759 5759 5759 5758 5756 5755 5754 5754 5753 5752 5751 5751 5750 5749 5748 5747 5746 5745 5744 5743 5742 5741 5740 5738 5737 5735 5734 5732 5730 5728 5727 5725 5724 5722 5720 5718 5716 5714 5712 5710 5708 5706 5703 5701 5699 5697 5695 5695 5693 5690 5688 5687 5684 5682 5680 5678 5676 5674 5672 5670 5669 5667 5665 5664 5663 5662 5660 5659 5658 5657 5655 5654 5653 5652 5651 5649 5648 5646 5644 5643 5641 5639 5638 5636 5634
5753 5753 5753 5752 5751 5750 5749 5749 5748 5747 5746 5745 5744 5743 5742 5742 5741 5740 5738 5737 5737 5735 5734 5732 5731 5730 5728 5726 5724 5723 5721 5720 5718 5716 5714 5713 5711 5709 5707 5704 5703 5701 5698 5697 5695 5692 5690 5689 5687 5685 5683 5682 5679 5677 5675 5673 5671 5669 5668 5666 5665 5663 5662 5660 5659 5658 5657 5656 5654 5653 5652 5651 5650 5648 5647 5646 5644 5643 5641 5640 5638 5636 5635 5633 5632
5748 5747 5747 5746 5746 5745 5744 5744 5743 5742 5741 5740 5739 5738 5737 5736 5736 5735 5733 5731 5730 5729 5727 5726 5725 5723 5721 5719 5718 5717 5715 5714 5713 5711 5709 5708 5706 5704 5701 5699 5697 5695 5693 5692 5690 5688 5686 5684 5682 5680 5679 5676 5674 5672 5670 5669 5667 5665 5664 5662 5661 5659 5658 5657 5656 5654 5653 5652 5651 5650 5648 5647 5646 5645 5644 5643 5641 5640 5638 5637 5635 5634 5632 5630 5629
5741 5741 5740 5740 5740 5740 5739 5738 5737 5737 5736 5735 5734 5733 5732 5731 5730 5729 5727 5725 5724 5723 5721 5720 5718 5717 5715 5713 5712 5711 5710 5709 5707 5706 5704 5703 5701 5699 5696 5694 5692 5690 5689 5687 5686 5684 5682 5680 5679 5677 5674 5672 5670 5668 5666 5665 5663 5661 5660 5659 5657 5656 5654 5653 5652 5651 5650 5648 5647 5646 5645 5644 5643 5642 5641 5640 5638 5637 5635 5634 5632 5631 5629 5627 5626
5735 5734 5734 5734 5734 5734 5733 5732 5732 5731 5730 5730 5729 5727 5727 5726 5724 5722 5721 5720 5719 5717 5716 5714 5713 5711 5710 5708 5707 5706 5705 5703 5702 5701 5700 5698 5696 5694 5692 5690 5688 5687 5685 5682 5681 5680 5678 5676 5674 5672 5670 5668 5666 5664 5662 5661 5659 5658 5656 5655 5654 5652 5651 5650 5649 5647 5646 5645 5644 5643 5642 5641 5640 5639 5638 5637 5635 5634 5632 5631 5629 5628 5626 5624 5623
5729 5729 5729 5729 5729 5728 5728 5727 5727 5726 5724 5723 5722 5721 5721 5720 5718 5716 5716 5715 5714 5713 5711 5709 5708 5706 5704 5702 5701 5701 5699 5698 5697 5697 5695 5693 5691 5690 5688 5686 5684 5683 5681 5679 5677 5676 5674 5672 5670 5668 5666 5664 5662 5660 5659 5657 5656 5654 5653 5651 5650 5649 5648 5646 5645 5644 5643 5642 5641 5640 5639 5638 5637 5636 5635 5633 5632 5631 5629 5628 5626 5625 5623 5622 5620
5723 5724 5724 5723 5723 5723 5722 5721 5721 5720 5719 5717 5716 5715 5714 5713 5712 5711 5710 5709 5708 5707 5705 5704 5704 5702 5699 5696 5695 5695 5694 5693 5693 5691 5690 5689 5687 5685 5684 5682 5680 5679 5677 5676 5674 5673 5671 5669 5667 5665 5663 5661 5659 5658 5656 5654 5652 5651 5650 5648 5647 5646 5644 5643 5642 5641 5640 5639 5638 5637 5636 5635 5634 5633 5632 5630 5629 5627 5626 5625 5623 5622 5620 5619 5617
5718 5718 5718 5718 5718 5717 5716 5715 5715 5714 5713 5712 5711 5710 5709 5707 5706 5705 5704 5703 5701 5700 5699 5699 5699 5697 5694 5692 5691 5690 5689 5689 5687 5686 5684 5684 5683 5681 5680 5678 5677 5675 5674 5672 5671 5670 5668 5666 5664 5662 5660 5659 5657 5655 5653 5652 5650 5648 5647 5646 5644 5643 5641 5640 5639 5638 5637 5636 5635 5634 5633 5632 5630 5629 5628 5627 5626 5624 5623 5621 5620 5619 5617 5616 5615
5713 5713 5712 5712 5712 5711 5711 5710 5709 5708 5707 5706 5705 5704 5703 5702 5700 5699 5698 5697 5695 5694 5693 5693 5693 5692 5690 5689 5688 5686 5685 5684 5682 5681 5680 5679 5678 5677 5676 5674 5673 5672 5671 5669 5668 5667 5666 5664 5662 5660 5658 5657 5655 5653 5651 5649 5648 5646 5644 5643 5641 5640 5638 5637 5636 5635 5634 5633 5632 5631 5629 5628 5627 5626 5625 5624 5622 5621 5620 5618 5617 5615 5614 5613 5612
5707 5707 5707 5706 5706 5706 5705 5704 5703 5703 5702 5701 5700 5699 5698 5697 5695 5694 5693 5692 5690 5689 5688 5688 5688 5686 5685 5684 5683 5681 5680 5678 5677 5676 5676 5675 5674 5673 5672 5671 5670 5669 5668 5667 5666 5664 5663 5661 5659 5658 5656 5655 5653 5651 5649 5647 5646 5644 5642 5640 5639 5637 5636 5635 5634 5632 5631 5630 5629 5628 5627 5625 5624 5623 5622 5620 5619 5617 5616 5615 5613 5612 5611 5610 5609
5701 5701 5701 5701 5700 5699 5699 5698 5698 5697 5696 5695 5694 5694 5693 5692 5691 5690 5689 5687 5686 5684 5683 5683 5682 5681 5680 5679 5677 5676 5675 5674 5674 5673 5673 5672 5671 5669 5668 5667 5667 5666 5666 5665 5664 5662 5660 5659 5658 5656 5655 5653 5651 5650 5648 5646 5644 5642 5640 5638 5637 5635 5634 5633 5631 5630 5629 5628 5626 5625 5624 5622 5621 5620 5618 5617 5615 5614 5612 5611 5609 5608 5607 5606 5605
5695 5695 5695 5695 5694 5693 5693 5693 5692 5692 5691 5690 5689 5688 5687 5686 5686 5685 5684 5683 5681 5680 5679 5678 5677 5676 5675 5674 5673 5672 5671 5671 5670 5669 5669 5668 5667 5666 5665 5665 5664 5664 5663 5662 5661 5660 5659 5657 5656 5655 5653 5651 5650 5648 5646 5644 5642 5640 5638 5637 5635 5633 5632 5631 5629 5628 5626 5625 5624 5622 5621 5619 5618 5617 5615 5613 5612 5610 5609 5607 5606 5604 5603 5603 5602
5689 5689 5689 5689 5688 5688 5688 5687 5687 5686 5686 5685 5684 5683 5682 5681 5680 5680 5679 5678 5677 5676 5675 5673 5672 5671 5671 5670 5669 5668 5668 5667 5667 5666 5666 5665 5664 5663 5663 5663 5662 5661 5661 5660 5659 5658 5657 5655 5654 5653 5652 5650 5648 5646 5644 5642 5640 5638 5636 5635 5633 5631 5630 5628 5626 5625 5624 5622 5621 5619 5618 5616 5615 5613 5612 5610 5608 5607 5605 5604 5602 5601 5600 5599 5599
5682 5683 5683 5683 5683 5682 5682 5681 5681 5681 5680 5680 5679 5678 5677 5676 5675 5674 5673 5672 5671 5670 5670 5668 5667 5667 5666 5666 5665 5665 5664 5664 5663 5663 5663 5662 5661 5661 5661 5660 5660 5659 5659 5658 5657 5656 5655 5653 5652 5651 5649 5648 5646 5644 5642 5640 5638 5636 5634 5633 5631 5629 5627 5625 5624 5622 5621 5619 5618 5617 5615 5614 5612 5610 5609 5607 5606 5604 5603 5602 5600 5599 5598 5597 5596
5677 5677 5678 5678 5677 5676 5676 5676 5675 5675 5675 5675 5674 5673 5672 5671 5670 5668 5667 5667 5666 5665 5665 5664 5663 5662 5662 5662 5661 5661 5660 5660 5659 5659 5659 5659 5659 5658 5658 5658 5657 5657 5656 5655 5654 5653 5652 5651 5650 5648 5647 5645 5643 5641 5640 5638 5636 5634 5632 5630 5628 5627 5625 5623 5621 5620 5618 5617 5615 5614 5613 5611 5609 5608 5607 5605 5604 5603 5601 5600 5599 5598 5596 5595 5594
5672 5672 5672 5672 5671 5671 5671 5671 5670 5670 5670 5669 5668 5667 5667 5666 5665 5664 5663 5662 5661 5661 5660 5659 5659 5658 5658 5658 5657 5657 5657 5656 5656 5656 5656 5656 5656 5656 5655 5655 5654 5654 5653 5652 5651 5650 5649 5648 5647 5645 5644 5642 5640 5639 5637 5635 5633 5632 5630 5628 5626 5624 5623 5621 5619 5617 5616 5615 5613 5612 5610 5609 5607 5606 5605 5604 5603 5602 5600 5599 5598 5597 5595 5594 5593
5667 5667 5666 5666 5666 5666 5666 5665 5665 5665 5664 5664 5663 5662 5662 5661 5660 5659 5659 5658 5657 5656 5656 5656 5655 5654 5654 5654 5653 5653 5653 5653 5653 5652 5652 5653 5653 5653 5653 5652 5651 5651 5649 5648 5647 5646 5645 5644 5643 5642 5640 5639 5637 5636 5634 5632 5631 5629 5627 5626 5624 5622 5620 5619 5617 5615 5614 5612 5611 5609 5608 5607 5606 5605 5604 5603 5602 5601 5600 5599 5597 5596 5595 5594 5593